GFSFLT2_850_thetae_174.txt.gz
Theta_e
291 292 292 291 291 290 290 291 291 291 290 290 290 291 291 291 292 293 293 294 295 295 296 297 299 299 302
292 291 291 291 290 289 290 290 290 290 290 289 290 290 290 291 291 291 292 292 292 294 294 295 295 297 298
291 291 289 290 290 290 290 290 289 289 289 289 290 290 290 290 290 290 290 290 291 291 291 291 293 294 295
289 289 290 290 290 289 289 289 289 289 289 289 289 289 289 289 289 289 289 289 289 289 289 290 291 292 292
289 290 290 289 289 289 288 288 289 289 289 289 287 287 288 289 289 289 289 288 288 289 289 290 291 292 292
289 289 289 289 288 288 288 289 288 288 288 287 287 287 287 288 288 287 287 288 288 289 289 290 290 291 291
288 288 288 288 288 287 287 286 286 287 287 286 287 286 287 287 287 287 287 287 287 288 289 289 290 290 291
286 287 287 286 286 286 286 286 286 286 286 286 286 286 286 286 287 287 287 287 287 288 288 288 288 290 291
286 286 285 285 285 284 285 285 285 285 285 285 285 285 286 286 287 287 287 287 287 287 287 288 289 289 289
286 285 284 284 284 285 284 285 284 284 285 285 285 285 286 286 286 286 286 287 287 287 287 288 288 289 288
284 284 284 284 284 283 284 284 284 284 284 285 285 285 285 285 286 286 287 287 287 287 287 288 288 288 288
283 284 284 283 283 283 283 283 283 283 284 284 285 285 285 285 285 286 286 287 287 287 288 288 287 288 288
283 283 283 282 283 283 283 283 283 283 283 284 284 284 284 285 285 285 286 287 287 287 287 287 288 288 288
282 282 282 282 282 282 283 283 283 283 284 284 284 284 284 284 285 285 286 286 287 287 287 287 287 288 288
281 281 281 281 282 282 282 282 282 282 283 284 284 284 284 284 285 285 286 286 286 286 286 286 287 287 288
281 281 281 281 281 282 282 282 281 282 282 283 283 284 284 285 285 285 285 285 286 286 286 286 286 286 287
282 281 281 282 282 282 282 281 281 282 282 283 283 283 283 284 284 284 284 285 285 285 285 286 285 286 285

GFSFLT2_850_thetae_177.txt.gz
Theta_e
291 292 292 292 292 290 290 290 290 290 291 291 291 291 291 291 291 291 292 292 292 293 294 294 296 297 297
291 292 291 289 290 291 290 290 290 290 290 290 290 291 291 291 291 291 291 291 291 292 291 292 293 293 294
290 289 289 290 290 290 290 290 289 288 289 289 290 290 290 290 290 290 290 290 290 291 291 290 290 291 292
289 289 290 289 290 290 289 288 288 288 288 288 289 288 288 288 289 289 289 289 290 290 289 289 290 290 291
289 289 289 289 289 289 288 288 288 288 287 288 288 287 287 287 287 288 289 288 288 288 289 289 290 290 291
289 289 288 288 288 288 287 286 286 286 287 287 287 286 286 286 287 288 288 288 289 289 289 289 289 289 290
288 287 287 287 287 286 285 285 285 285 286 286 286 286 286 286 286 287 288 288 288 288 288 288 288 289 289
288 287 286 287 286 285 285 284 285 285 285 285 285 285 285 285 286 287 288 287 288 288 288 288 288 288 288
286 286 286 286 285 285 285 284 284 284 284 285 285 285 285 285 286 286 286 287 287 288 288 288 288 288 288
285 285 285 284 285 284 284 283 283 283 284 284 284 284 285 285 285 285 285 286 287 287 288 288 288 288 288
284 284 284 284 283 283 283 283 283 283 283 284 284 284 284 285 285 284 285 285 286 286 286 287 287 288 288
283 283 283 283 283 283 283 283 283 283 283 283 284 284 284 284 284 284 285 285 286 287 287 287 287 287 287
283 283 282 282 282 282 282 282 282 283 283 283 283 283 284 284 284 284 284 286 285 286 286 286 286 287 287
282 282 282 281 281 281 281 281 282 282 283 283 283 283 283 283 284 284 285 284 285 285 285 286 286 286 287
281 281 281 280 281 281 281 281 281 281 281 282 283 283 283 283 284 285 285 285 285 285 285 285 285 285 286
282 281 280 281 281 282 281 280 281 281 281 282 282 283 283 283 284 285 284 284 284 284 284 284 284 285 285
281 281 280 281 281 281 281 280 280 281 281 282 282 282 283 283 283 283 283 284 284 284 284 284 284 285 285

GFSFLT2_850_thetae_180.txt.gz
Theta_e
291 290 289 289 289 289 289 289 289 289 288 288 290 291 291 291 291 291 291 291 291 292 292 292 293 294 294
289 289 289 289 289 289 290 290 289 289 288 290 290 290 290 290 290 290 290 290 290 290 291 291 292 292 291
289 289 289 289 289 289 289 288 288 288 288 288 288 289 289 289 289 289 289 289 289 289 290 290 290 290 291
289 289 289 288 288 288 287 287 287 287 287 286 287 287 287 287 287 287 287 288 289 289 289 289 289 290 290
289 289 289 288 287 287 287 286 286 286 285 285 285 286 285 285 285 286 288 288 288 289 289 289 289 289 289
289 289 288 288 287 286 287 286 285 285 284 285 285 284 284 285 285 286 287 288 288 289 288 288 288 289 289
288 288 288 287 286 287 286 285 284 284 284 284 284 284 284 284 285 285 287 288 288 288 288 288 288 289 289
287 287 286 286 287 286 285 285 284 284 283 283 283 284 284 284 284 285 287 286 287 287 288 288 288 288 288
286 286 285 285 284 284 285 284 283 283 284 283 283 283 283 284 285 285 285 285 285 287 286 287 287 288 288
287 286 284 284 283 283 283 283 283 283 283 283 283 283 284 284 284 284 284 284 285 285 286 286 287 288 288
284 284 283 283 282 282 282 282 282 283 283 283 283 283 284 283 283 284 284 285 285 286 286 286 286 286 286
283 283 282 282 283 283 282 282 282 282 282 282 282 283 283 283 283 283 284 285 285 285 285 285 285 286 286
282 282 283 283 283 283 283 282 283 282 282 282 282 282 283 283 283 283 284 284 285 285 285 285 285 285 285
282 283 283 283 283 282 281 281 282 283 283 282 282 282 282 283 283 283 284 284 284 284 284 284 284 285 284
283 282 282 282 281 281 281 280 280 281 281 281 281 281 282 282 282 283 284 283 283 283 284 284 284 284 285
282 281 281 280 280 281 280 279 280 280 280 280 280 280 281 281 282 282 282 282 283 283 283 283 284 284 284
281 281 279 279 280 280 280 279 279 280 280 280 279 280 279 279 280 281 281 281 282 282 282 282 283 283 283

GFSFLT2_850_thetae_183.txt.gz
Theta_e
290 289 289 289 289 289 289 289 289 288 288 288 289 290 290 290 291 291 291 290 290 290 291 291 292 293 293
289 289 289 289 288 288 288 288 288 288 287 287 287 288 289 289 289 289 289 289 288 289 290 290 290 290 291
289 289 289 289 288 288 288 288 288 288 287 287 286 286 287 287 287 288 287 287 288 289 290 289 290 290 290
289 288 288 288 288 287 287 288 288 287 287 286 286 285 285 285 285 285 286 287 288 288 289 289 289 289 290
288 288 288 288 287 287 287 287 287 286 286 286 285 285 285 284 285 285 286 287 288 289 289 289 289 289 289
288 288 287 287 286 286 286 286 285 286 285 285 285 284 284 284 284 284 286 287 288 287 288 288 288 289 289
287 287 286 286 286 286 285 285 285 285 284 284 284 284 284 284 284 284 285 287 287 286 287 288 288 288 288
286 286 286 286 285 285 284 284 284 284 283 283 283 283 284 284 284 284 284 285 285 285 286 287 287 287 288
286 286 286 285 285 285 284 283 283 283 283 282 282 283 283 285 285 284 284 284 284 285 285 286 286 287 287
286 286 286 286 285 284 283 282 281 281 282 282 282 282 282 283 284 284 284 285 285 285 285 286 286 286 286
285 286 286 285 284 283 282 281 281 281 282 281 281 282 282 282 283 284 284 284 285 285 285 285 285 286 286
285 285 284 283 283 282 282 282 282 281 282 281 281 281 281 281 282 283 283 284 284 285 284 284 284 284 284
283 283 283 282 282 282 282 283 283 282 282 281 281 281 281 281 282 282 282 283 284 283 284 284 284 284 284
281 281 281 282 282 281 281 282 282 283 282 281 281 280 280 281 281 282 282 282 282 283 282 283 284 284 284
280 280 280 280 281 281 280 280 280 281 281 281 280 280 280 280 281 281 281 281 281 281 282 282 283 283 283
280 280 279 279 280 279 280 279 279 280 280 280 280 280 280 281 281 281 281 281 281 282 281 281 282 283 283
280 280 280 279 279 280 280 279 279 279 279 280 280 280 279 279 280 280 280 281 281 281 281 281 281 283 283

GFSFLT2_850_thetae_186.txt.gz
Theta_e
290 289 289 289 289 289 288 288 289 289 289 289 289 288 288 289 289 289 290 290 290 290 290 291 292 292 292
289 289 289 289 288 288 288 288 289 289 288 288 287 287 287 287 288 288 288 288 288 289 290 291 291 291 291
289 289 288 288 288 288 288 289 288 287 287 287 286 286 286 286 286 286 285 286 288 288 289 289 290 290 291
288 288 288 287 287 287 288 288 288 287 287 286 286 286 286 285 285 285 285 286 287 288 289 289 289 290 290
287 287 287 287 286 286 287 287 287 287 286 287 286 286 286 286 285 285 285 286 287 288 288 288 288 289 289
287 286 286 286 286 286 286 285 285 286 285 287 286 286 285 286 285 285 285 286 287 287 287 287 287 289 289
286 285 286 286 285 285 285 285 285 285 284 285 286 286 286 286 285 284 285 285 285 286 286 287 287 287 288
285 285 285 285 285 284 285 284 285 285 284 285 285 285 284 285 285 285 284 284 284 285 285 286 286 286 287
285 285 284 285 284 285 284 284 284 285 284 282 283 283 284 285 285 285 284 284 284 285 284 284 286 286 286
285 285 284 285 285 284 284 283 283 282 282 281 282 281 281 283 283 283 284 284 284 284 285 285 285 285 285
285 285 285 285 285 284 284 283 282 281 282 280 280 281 281 281 282 283 283 284 284 284 285 284 284 284 284
285 284 284 284 284 284 283 282 282 281 281 281 280 280 280 280 281 282 282 283 283 284 284 283 284 284 284
283 283 283 283 283 283 282 281 281 282 281 281 280 280 280 280 280 281 280 281 282 282 282 282 283 283 284
283 283 282 281 281 280 280 280 280 281 281 281 280 280 280 280 280 281 281 280 281 282 281 282 283 283 283
282 281 280 280 280 280 280 279 279 280 281 280 280 280 280 280 281 281 281 281 281 281 281 282 283 283 283
281 281 280 280 280 279 279 279 279 280 280 280 280 280 280 280 280 280 280 280 281 281 281 281 282 283 283
281 280 280 279 279 279 279 279 280 279 279 280 280 280 280 280 280 279 280 280 281 281 281 281 281 283 283

GFSFLT2_850_thetae_189.txt.gz
Theta_e
291 290 290 290 289 289 289 288 288 289 289 289 289 288 288 287 288 289 289 289 289 289 290 291 291 292 292
290 290 290 289 289 288 288 288 288 289 289 289 289 288 288 287 287 287 288 287 287 288 289 290 290 291 291
290 289 289 288 288 288 288 288 289 289 289 289 288 287 287 286 286 286 286 285 286 287 288 289 290 290 291
289 288 288 287 287 287 288 288 289 289 289 288 288 287 286 286 285 286 285 285 286 287 288 289 289 288 289
288 287 287 287 286 286 287 288 289 288 288 288 287 287 287 286 286 286 285 285 286 287 288 289 288 288 288
287 286 286 286 286 286 286 286 287 287 286 288 287 287 287 286 286 286 286 286 286 286 287 287 287 287 288
286 286 286 285 285 285 286 286 286 286 284 287 286 286 286 286 286 286 285 285 284 285 285 286 287 287 287
286 286 285 285 284 285 285 285 285 286 284 285 285 285 286 285 285 285 285 285 284 284 284 285 285 286 287
285 285 284 284 284 284 284 284 284 285 284 283 284 284 284 285 285 285 284 283 284 284 283 284 285 286 285
285 285 284 284 284 283 283 283 282 282 283 281 281 281 281 282 283 283 283 283 283 283 284 283 284 284 284
285 284 284 284 284 283 283 282 282 281 282 280 280 280 280 280 281 282 282 282 283 283 283 283 284 284 283
285 285 284 284 284 283 282 282 282 281 281 281 280 280 279 279 280 282 282 282 282 282 282 282 282 282 283
284 284 284 283 282 282 281 281 281 282 281 280 280 280 280 279 279 280 281 281 282 281 281 282 283 283 283
284 283 282 282 282 281 280 280 280 282 282 281 280 279 279 279 280 280 281 280 281 281 281 282 283 283 283
283 282 282 282 282 281 280 280 279 280 280 281 280 279 279 279 280 281 281 281 281 280 281 281 282 283 283
283 282 282 281 281 281 280 280 279 280 280 280 280 280 280 281 280 280 281 280 281 281 281 281 282 283 282
283 282 281 281 281 281 280 280 280 280 280 280 280 279 279 280 280 280 280 281 281 281 281 281 281 282 282

GFSFLT2_850_thetae_195.txt.gz
Theta_e
295 295 293 291 290 290 289 289 289 288 288 289 289 290 290 290 290 290 290 290 289 289 289 290 291 291 291
293 292 291 290 289 289 289 289 288 288 288 289 289 289 289 289 289 289 289 289 289 287 288 289 289 290 291
292 291 290 289 289 288 288 288 288 288 288 288 288 288 288 288 288 288 288 288 287 287 288 288 289 289 290
291 290 289 289 288 289 289 288 288 288 288 287 287 287 287 287 287 287 287 287 287 287 287 287 287 288 288
291 289 289 288 288 288 288 288 288 288 287 287 287 287 287 287 286 287 287 287 286 286 286 287 286 287 287
290 290 288 288 287 287 287 287 287 286 286 288 286 286 286 286 286 286 286 286 286 286 287 286 285 286 287
290 288 288 287 286 286 286 286 286 285 284 286 286 286 286 286 286 286 285 285 285 284 284 284 284 285 286
289 288 287 286 286 286 285 285 285 285 283 282 283 283 284 285 285 285 285 284 283 283 283 283 283 283 284
288 287 286 285 285 285 284 284 284 284 283 282 282 281 281 283 284 284 284 282 283 282 282 282 282 282 283
287 287 286 286 285 284 284 283 282 282 282 280 279 280 279 281 282 283 283 283 282 282 282 282 282 281 282
287 287 286 286 284 283 282 282 282 281 281 279 279 279 278 278 279 282 282 282 282 282 282 281 281 281 281
287 287 286 285 284 283 282 282 282 281 281 280 280 279 279 279 279 281 281 282 281 281 281 281 281 282 281
286 286 286 285 284 283 282 282 282 282 281 281 280 279 279 279 279 280 280 281 281 281 281 281 281 281 281
286 286 285 285 284 282 282 282 282 282 282 281 280 280 280 280 279 280 280 280 281 281 281 281 281 281 281
285 285 285 284 284 283 282 281 281 281 281 281 281 280 280 280 280 280 280 280 280 280 280 280 280 281 281
285 285 285 284 284 283 281 281 280 281 281 281 281 280 280 280 280 279 280 280 280 280 280 280 280 280 280
285 284 284 284 283 282 280 280 280 280 280 280 280 279 279 279 279 279 278 279 280 280 280 280 280 280 280

GFSFLT2_850_thetae_198.txt.gz
Theta_e
299 299 297 295 293 291 290 290 289 289 289 289 288 289 289 289 289 289 289 290 290 290 290 290 291 292 292
295 295 294 292 290 290 290 289 288 289 288 288 288 288 288 288 288 288 288 289 289 289 289 289 290 290 291
294 292 291 290 290 289 288 288 289 288 288 288 287 287 287 287 287 287 288 288 288 288 288 288 289 288 289
292 291 291 290 289 289 289 289 288 288 288 288 287 287 287 286 286 286 287 287 287 287 287 288 288 287 288
291 291 290 289 289 289 288 288 288 288 288 287 287 287 287 286 286 286 286 286 286 286 287 288 288 288 287
291 290 289 288 288 288 288 288 287 287 287 287 287 286 286 286 286 286 285 285 286 286 286 286 286 286 286
289 289 288 288 288 287 287 287 286 285 286 287 285 285 286 286 285 285 284 285 285 284 283 283 284 284 284
289 288 288 287 287 287 287 286 285 284 283 284 285 285 286 286 286 285 285 284 284 283 282 283 283 283 283
288 288 287 287 287 286 285 284 284 283 283 283 283 283 284 285 284 284 283 283 283 282 282 282 282 282 282
287 287 287 287 286 285 284 283 283 283 282 282 283 281 281 282 282 282 282 283 282 282 282 282 281 281 282
287 287 287 286 285 285 284 283 283 282 282 281 281 280 279 279 281 281 281 281 281 282 281 281 281 281 281
287 286 286 286 285 285 284 283 283 282 282 281 280 280 279 279 279 280 281 281 281 281 281 281 281 282 281
286 286 286 285 285 285 284 283 283 282 281 281 280 281 280 280 280 280 280 281 281 281 280 281 281 281 281
286 286 285 285 285 284 284 283 282 282 281 281 281 281 281 280 279 281 279 280 280 280 280 280 281 280 280
287 285 285 285 284 284 283 282 281 281 282 282 281 281 281 280 280 281 280 280 280 280 280 280 280 280 280
287 285 284 284 284 284 283 282 282 282 282 281 281 281 281 280 281 280 279 280 280 280 280 280 280 281 280
287 286 284 284 283 284 283 283 283 282 281 281 281 280 280 279 280 280 279 279 279 280 280 280 280 280 280

GFSFLT2_850_thetae_201.txt.gz
Theta_e
299 299 298 298 297 295 292 291 290 289 290 290 289 289 289 289 289 288 288 289 289 289 289 289 290 291 292
299 298 297 297 295 291 290 289 289 289 289 289 289 289 289 288 287 288 288 288 288 288 288 288 289 290 291
298 295 295 293 290 290 289 289 289 289 289 288 288 288 288 287 287 287 287 287 287 287 287 287 288 289 290
293 293 291 290 289 289 289 289 289 288 288 288 288 288 287 288 287 287 287 287 287 286 287 288 289 289 289
292 291 291 290 289 289 289 289 288 288 288 287 287 288 287 287 286 286 286 286 286 287 287 286 287 286 287
293 292 291 290 289 289 288 288 287 287 287 288 288 287 286 286 286 286 286 286 285 285 285 285 285 285 285
292 291 290 289 288 288 287 287 286 286 287 287 286 286 287 286 286 286 286 285 284 285 285 284 284 284 284
290 290 289 289 289 288 287 287 286 285 285 285 285 286 286 286 286 285 284 284 283 283 283 283 283 283 284
290 289 289 289 288 287 287 286 285 284 284 285 285 285 286 287 286 284 284 284 284 284 283 283 283 283 282
290 289 288 287 287 286 286 285 284 284 284 283 284 282 284 286 285 284 284 284 283 283 283 282 282 282 282
289 288 287 287 286 286 285 285 284 284 283 282 283 283 281 282 285 284 283 283 282 282 281 281 282 282 282
288 287 286 286 286 286 285 285 284 284 283 282 282 282 282 282 282 283 282 281 281 281 281 281 281 281 281
288 287 287 286 286 285 285 285 285 284 284 283 282 282 281 280 279 280 281 282 281 281 280 281 280 280 281
288 288 287 287 286 285 284 284 284 284 284 283 282 281 280 280 280 281 281 280 281 281 280 280 281 281 281
288 288 288 286 285 285 284 284 284 284 284 282 281 280 281 280 280 281 281 281 281 280 280 280 281 281 281
288 287 287 287 286 285 284 283 283 283 283 283 282 281 281 281 281 281 280 280 280 279 280 280 280 281 281
287 287 287 287 286 285 284 283 283 283 282 282 281 280 279 279 281 280 281 281 280 280 280 280 280 281 281

GFSFLT2_850_thetae_204.txt.gz
Theta_e
302 301 300 300 300 299 297 295 291 290 289 290 290 289 289 289 289 289 289 288 289 288 288 288 288 289 291
301 300 298 298 298 297 295 291 290 289 290 290 289 289 289 289 289 288 288 288 288 288 288 288 288 289 290
302 299 298 297 295 293 291 290 290 290 290 290 289 288 288 288 288 288 288 288 287 287 287 287 288 289 290
299 297 294 293 291 290 290 290 290 290 290 289 289 288 288 288 288 287 287 287 287 287 287 287 286 286 287
294 293 291 291 290 290 290 290 289 289 289 288 288 288 287 287 287 287 286 286 286 286 286 286 286 287 286
292 291 291 290 290 289 289 289 289 289 288 288 288 288 287 287 286 286 286 286 285 285 285 286 286 285 285
292 291 291 290 290 289 288 288 288 287 288 289 288 287 287 286 286 286 285 284 284 284 284 285 285 285 285
291 291 290 289 289 288 288 288 287 287 287 287 287 286 286 286 287 286 285 284 284 284 284 284 284 284 284
291 290 289 289 288 288 287 287 287 286 286 285 285 285 286 286 286 285 284 284 284 283 283 282 282 283 283
291 290 289 288 288 287 287 286 286 285 285 284 284 284 285 286 285 285 285 284 284 283 283 282 282 282 282
291 290 289 288 288 287 286 286 285 285 284 284 284 283 282 283 286 285 285 284 284 284 283 283 283 282 281
290 289 289 288 287 286 286 285 285 285 284 283 283 283 282 282 282 285 285 284 284 284 283 282 281 281 281
289 288 288 288 288 287 286 286 285 285 284 284 283 283 282 281 281 283 283 284 284 282 281 281 282 282 281
289 288 288 288 288 288 287 286 286 285 284 284 283 282 282 282 281 282 282 280 282 282 281 281 281 281 281
289 288 288 287 287 287 287 287 285 285 284 284 283 283 283 282 281 281 281 282 282 281 280 280 280 281 281
290 289 288 288 287 287 287 286 286 285 284 283 283 283 282 282 281 281 280 281 281 280 280 280 281 281 281
289 289 288 288 288 287 286 286 286 285 284 283 282 281 278 279 280 279 280 279 280 280 280 280 280 282 281

GFSFLT2_850_thetae_207.txt.gz
Theta_e
304 303 303 302 302 300 299 299 298 297 293 291 291 290 290 290 290 289 289 289 289 289 288 288 288 289 290
306 303 302 300 299 298 298 297 295 292 290 290 290 290 290 289 289 289 289 289 289 289 288 288 288 289 290
306 303 300 298 297 297 296 293 290 289 290 290 290 289 289 289 289 288 289 289 289 288 288 288 288 289 288
302 301 299 297 296 294 291 289 289 289 289 289 289 288 288 288 288 288 288 288 288 287 287 287 287 287 287
300 299 297 294 293 290 289 289 289 289 289 288 288 288 288 288 288 287 287 287 287 286 286 286 287 288 287
298 295 293 290 290 289 289 289 289 289 289 288 288 288 287 286 286 287 287 286 286 285 285 285 285 285 286
292 291 291 290 290 289 289 289 288 288 288 288 287 287 286 286 287 287 286 286 285 285 285 284 284 285 285
291 291 290 290 290 289 289 288 287 287 287 287 287 287 287 286 287 286 286 285 285 284 284 283 283 283 284
291 291 290 289 289 289 288 287 287 287 286 286 286 286 287 287 286 286 285 285 284 284 284 284 283 283 283
292 291 290 291 291 289 288 288 287 286 285 285 285 285 285 286 285 285 285 284 284 284 284 284 283 283 283
292 293 293 290 289 288 288 287 286 285 284 284 284 284 283 284 286 285 285 284 284 284 284 283 283 282 282
294 290 289 289 289 288 288 287 287 286 285 284 283 283 283 283 283 285 284 284 284 284 284 283 283 282 282
291 289 289 289 288 288 288 288 287 286 285 284 283 283 283 283 282 283 283 284 284 283 283 283 283 283 283
290 290 289 289 288 288 287 287 287 287 286 285 283 282 283 283 282 283 283 281 283 283 282 283 283 283 282
290 290 290 290 289 289 288 287 287 286 286 286 284 283 282 282 282 283 282 282 282 282 281 282 283 282 281
289 289 289 288 287 287 287 286 286 286 286 285 284 282 282 283 282 281 281 281 282 282 281 280 281 281 281
287 287 287 286 287 289 287 285 285 285 285 285 283 281 281 281 282 280 280 281 280 280 280 280 280 282 281

GFSFLT2_850_thetae_210.txt.gz
Theta_e
308 308 306 304 303 301 299 299 298 298 297 295 293 291 289 289 289 290 290 289 289 289 289 289 289 289 290
305 305 303 301 300 299 298 298 298 297 296 293 290 289 289 289 289 289 289 289 288 288 288 288 288 288 290
307 304 302 300 299 298 297 297 296 294 291 289 289 289 289 289 289 288 289 289 288 288 288 288 288 288 288
304 305 302 300 297 296 296 295 293 290 289 289 289 289 289 289 288 288 288 288 288 287 287 287 287 288 288
302 303 301 299 297 296 294 291 289 289 289 289 289 289 289 288 288 288 287 287 287 287 287 287 287 286 286
304 301 299 297 294 291 289 289 289 289 289 288 288 288 288 287 287 287 286 286 286 286 286 286 285 286 286
298 298 295 291 290 290 289 289 289 289 289 289 289 288 287 286 286 286 286 286 286 286 285 285 285 285 285
292 291 290 290 290 289 289 289 289 288 288 288 287 287 286 286 287 286 286 285 285 285 285 285 284 285 285
290 290 290 290 291 291 290 288 288 287 287 286 286 287 287 287 286 286 285 285 284 284 284 284 284 284 285
292 292 292 294 290 288 288 289 288 287 286 286 286 285 285 286 286 285 285 284 284 284 284 284 284 284 284
294 295 291 290 289 289 289 289 288 287 286 286 285 285 284 284 285 285 285 285 285 285 284 284 284 282 283
292 291 291 290 290 289 289 288 288 287 287 286 285 284 283 283 284 285 284 284 284 284 283 283 283 283 282
291 290 290 290 289 289 288 288 287 287 287 286 285 285 284 283 283 284 283 284 284 284 282 282 283 283 283
290 290 290 290 289 289 289 289 289 288 287 286 285 285 285 284 283 284 283 282 283 282 281 282 283 283 282
290 290 290 289 289 288 288 289 288 286 286 285 285 285 285 284 283 283 282 282 282 281 281 282 283 282 282
289 288 288 287 287 287 288 289 289 287 285 285 285 284 285 285 283 282 281 281 281 280 280 280 281 281 281
288 287 287 286 286 286 287 288 288 287 285 285 284 282 281 281 281 281 280 280 280 280 280 280 280 281 282

GFSFLT2_850_thetae_216.txt.gz
Theta_e
311 312 312 311 310 308 308 309 308 307 303 301 299 298 298 297 296 295 291 290 289 289 289 289 289 289 291
312 312 310 309 309 307 307 308 305 302 301 299 298 298 298 297 295 291 289 290 290 289 289 289 289 288 289
311 311 310 309 308 307 306 303 301 299 298 298 298 298 298 293 289 289 289 289 289 289 289 288 288 288 288
310 310 309 308 305 304 302 301 299 298 298 297 296 294 290 289 289 289 289 289 288 288 288 288 288 287 287
309 308 306 304 305 304 301 299 298 297 296 295 291 289 289 289 289 289 289 289 288 288 287 287 287 287 287
306 305 305 304 303 302 300 298 296 295 291 289 289 289 289 288 288 288 288 288 287 286 286 286 286 286 286
306 304 303 302 302 299 297 296 293 289 289 289 289 288 288 288 288 287 287 286 286 286 286 286 285 285 285
302 301 301 300 297 295 292 289 289 289 289 289 289 288 288 288 288 287 287 286 286 286 286 285 285 285 285
297 297 294 292 290 289 290 290 290 290 290 289 289 289 289 290 289 287 287 286 285 285 284 284 284 284 284
291 290 290 290 292 293 291 290 291 290 289 289 289 289 289 289 288 288 288 287 286 286 285 285 284 284 284
293 295 295 292 290 290 290 290 290 289 289 289 289 288 287 287 288 288 287 287 286 286 286 285 284 283 283
295 293 292 291 290 290 290 290 290 290 289 289 289 288 287 287 287 287 286 286 286 286 285 284 283 283 282
291 291 290 290 290 290 290 290 289 289 289 289 288 287 286 285 285 286 285 286 285 285 283 283 283 283 282
291 290 290 290 290 290 289 289 288 288 289 288 288 287 287 286 284 285 285 284 285 284 282 282 282 282 282
290 290 290 289 289 289 288 288 287 286 287 287 286 286 286 286 286 286 285 284 283 282 281 282 282 282 281
289 289 288 288 287 287 286 286 286 285 285 285 285 285 285 285 284 284 283 283 282 281 281 280 281 281 281
288 288 287 287 287 286 286 285 285 285 285 285 285 285 284 283 283 282 281 281 281 280 280 280 280 281 281

GFSFLT2_850_thetae_219.txt.gz
Theta_e
313 312 312 311 311 312 311 311 308 308 309 307 304 305 300 299 299 298 297 297 293 290 289 289 291 293 292
312 312 312 311 310 310 309 308 307 307 307 306 304 301 300 299 298 297 297 294 290 289 289 289 289 289 290
312 311 311 311 310 309 308 306 306 306 305 304 301 300 299 299 298 296 294 290 289 289 289 289 288 288 288
311 311 309 310 309 308 306 305 304 304 301 300 299 298 298 297 293 290 289 289 289 288 288 288 288 288 288
309 310 310 309 308 306 303 302 301 301 300 299 296 295 293 290 289 289 289 289 288 288 288 287 287 287 287
309 309 309 308 306 303 301 300 299 299 297 296 294 290 289 289 289 289 288 288 288 287 287 286 286 286 286
307 307 305 304 303 301 300 300 300 298 290 290 289 289 289 289 289 288 288 287 286 286 286 286 286 286 285
304 302 302 301 301 301 299 297 295 290 289 289 290 289 289 289 289 289 288 287 286 286 286 286 285 285 285
301 300 300 300 299 296 293 290 289 290 290 290 290 290 291 291 291 289 288 288 287 287 286 286 286 286 286
296 294 292 291 290 290 290 290 290 290 290 290 290 290 290 290 289 289 288 288 287 286 286 286 286 285 285
290 291 292 293 292 291 290 290 290 291 290 290 289 289 289 289 289 288 288 287 286 286 286 286 286 285 284
294 293 291 291 291 291 291 290 290 290 290 289 289 289 288 288 288 288 288 287 286 286 286 285 285 284 284
292 292 291 291 290 290 290 290 290 289 289 289 289 288 288 287 287 288 287 287 287 286 285 284 284 283 283
291 290 290 290 290 289 289 289 289 288 287 287 287 287 287 286 286 287 287 285 286 285 283 283 283 282 282
290 290 289 289 289 289 288 288 287 286 286 285 285 285 285 285 286 286 285 285 285 283 282 282 282 282 281
288 288 288 288 287 287 287 286 286 286 285 285 284 284 284 285 285 284 284 284 284 282 281 280 281 282 281
288 287 287 287 287 287 286 286 286 285 285 285 284 284 284 284 284 283 283 283 281 280 280 280 280 281 281